ROMMA est une association bénévole à but non lucratif. Votre soutien est indispensable : ADHERER à ROMMA ou FAIRE un DON

Briord - (01, Ain)

Bugey (281 m)   Longitude: 05° 29' 13" E   Latitude: 45° 46' 37" N Station partenaire n°15
 

Détail journalier du     <<     >>

Température Precipitation Humidité Pression Vent Dir Rafale Dir. rafale Ensol.
Heure (°C) (mm) (%) (hPa) (km/h) (km/h) (min)
01:00 17.1079101402ESE0
02:00 16.2082101403ESE0
03:00 15.4084101402ESE0
04:00 15.1084101403SE0
05:00 14.3087101402SE0
06:00 13.7088101502SE0
07:00 13.7089101503ESE0
08:00 14.6088101500---0
09:00 19.4080101602ESE40
10:00 22.8063101605NO60
11:00 23.805910151ONO6ONO60
12:00 25.905210151ONO11ONO60
13:00 27.904910153O16O60
14:00 28.904710143ONO16ONO60
15:00 30.304410135O16N60
16:00 30.903910135ONO18ONO60
17:00 31.804010133ONO15NO60
18:00 32.103710123O16N60
19:00 31.803410124ONO15NNO60
20:00 32.203410131ONO11NO60
21:00 23.8056101305NE0
22:00 20.3066101306NNE0
23:00 21.106210131ESE13E0
minuit 19.3070101302E0

Graphique du 04-08-2019

 

Serveur OMMA